Overview Statistics Trail Chart Weather Telemetry Raw packets
 

This is the latest recevied weather packets stored in our database for station/object KH6HHG. If no packets are shown the sender has not sent any weather packets the latest 10 day(s).

<< 73 74 75 76 77 78 79 >>
Time Temp. Humidity Pressure Rain* Wind** Luminosity Snow
1777161548 24.44° C 78% 1011.5 hPa 0 mm - - -
1777161247 23.89° C 79% 1011.6 hPa 0 mm - - -
1777160947 23.89° C 81% 1011.6 hPa 0 mm - - -
1777160647 23.89° C 79% 1011.7 hPa 0 mm - - -
1777160347 24.44° C 79% 1011.8 hPa 0 mm - - -
1777160048 23.89° C 78% 1011.9 hPa 0 mm - - -
1777159748 23.89° C 77% 1012 hPa 0 mm - - -
1777159447 24.44° C 76% 1012.1 hPa 0 mm - - -
1777159147 24.44° C 77% 1012.1 hPa 0 mm - - -
1777158847 23.89° C 78% 1012.1 hPa 0 mm - - -
1777158547 23.33° C 80% 1012.1 hPa 0 mm - - -
1777158247 23.33° C 78% 1012.3 hPa 0 mm - - -
1777157947 23.33° C 80% 1012.2 hPa 0 mm - - -
1777157647 23.33° C 82% 1012.3 hPa 0 mm - - -
1777157347 22.78° C 83% 1012.3 hPa 0 mm - - -
1777157047 22.78° C 84% 1012.5 hPa 0.76 mm - - -
1777156747 22.22° C 86% 1012.5 hPa 1.27 mm - - -
1777156447 22.22° C 83% 1012.6 hPa 1.52 mm - - -
1777156147 22.22° C 86% 1012.7 hPa 1.78 mm - - -
1777155847 22.78° C 89% 1012.7 hPa 1.78 mm - - -
1777155547 22.22° C 88% 1012.8 hPa 1.78 mm - - -
1777155247 22.22° C 86% 1012.8 hPa 1.78 mm - - -
1777154947 22.22° C 89% 1012.9 hPa 1.78 mm - - -
1777154647 22.22° C 90% 1013 hPa 1.78 mm - - -
1777154348 22.22° C 89% 1013 hPa 1.78 mm - - -

* Rain latest hour (hover to see other rain measurements)
** Current wind speed in m/s (hover to see current wind gust speed)